Location: Fiennes
(50.8274°N, 1.8253°E)
Time: 23:27:48
(UTC+00:00)

Okean 1-7 Rocket - Pass Details

Date: 15 May 2026
Orbit: 611 x 641 km, 82.5° (Epoch: 6 June)

Event Time Altitude Azimuth Distance (km) Brightness Sun altitude
Rises 21:40:41 0° 347° (NNW) 2,927 8.5 -14.7°
Reaches altitude 10° 21:42:56 10° 345° (NNW) 2,020 7.4 -14.8°
Maximum altitude 21:47:22 66° 264° (W) 697 3.9 -15.2°
Enters shadow 21:50:19 21° 186° (S) 1,444 5.0 -15.4°
